| time (UTC) | temp C | wind direction | speed KPH | gust KPH | rain 1hr cm | rain 24hr cm | rain mn cm | humidity % | barometer mb |
| 20260508035746 | 15 | 1 | 0.0 | 0.0 | 0.00 | 0.94 | 0.94 | 91 | 1035.1 |
| 20260508035243 | 14 | 1 | 0.0 | 0.0 | 0.00 | 0.94 | 0.94 | 91 | 1035.4 |
| 20260508034739 | 14 | 1 | 0.0 | 0.0 | 0.00 | 0.94 | 0.94 | 91 | 1035.4 |
| 20260508034237 | 15 | 1 | 0.0 | 0.0 | 0.00 | 0.94 | 0.94 | 91 | 1035.5 |
| 20260508033734 | 15 | 1 | 0.0 | 0.0 | 0.00 | 0.94 | 0.94 | 91 | 1035.4 |
| 20260508033232 | 15 | 1 | 0.0 | 0.0 | 0.00 | 0.94 | 0.94 | 90 | 1035.4 |
| 20260508032729 | 15 | 1 | 0.0 | 0.0 | 0.00 | 0.94 | 0.94 | 88 | 1035.5 |
| 20260508032226 | 15 | 1 | 0.0 | 0.0 | 0.00 | 0.94 | 0.94 | 88 | 1035.1 |
| 20260508031723 | 15 | 1 | 0.0 | 0.0 | 0.00 | 0.94 | 0.94 | 88 | 1035.2 |
| 20260508031219 | 15 | 1 | 0.0 | 0.0 | 0.00 | 0.94 | 0.94 | 89 | 1035.4 |
| 20260508030716 | 15 | 0 | 0.0 | 0.0 | 0.00 | 0.94 | 0.94 | 92 | 1035.3 |
| 20260508030213 | 15 | 2 | 0.0 | 0.0 | 0.00 | 0.94 | 0.94 | 92 | 1035.1 |
| 20260508025710 | 15 | 2 | 0.0 | 0.0 | 0.00 | 0.94 | 0.94 | 91 | 1035.3 |
| 20260508025207 | 15 | 3 | 0.0 | 0.0 | 0.00 | 0.94 | 0.94 | 91 | 1035.3 |
| 20260508024702 | 15 | 3 | 0.0 | 0.0 | 0.00 | 0.94 | 0.94 | 91 | 1035.1 |
| 20260508024200 | 15 | 3 | 0.0 | 0.0 | 0.00 | 0.94 | 0.94 | 92 | 1035.1 |
| 20260508023656 | 15 | 3 | 0.0 | 0.0 | 0.00 | 0.94 | 0.94 | 92 | 1035.0 |
| 20260508023154 | 15 | 3 | 0.0 | 0.0 | 0.00 | 0.94 | 0.94 | 92 | 1035.0 |
| 20260508022649 | 15 | 2 | 0.0 | 0.0 | 0.00 | 0.94 | 0.94 | 92 | 1034.8 |
| 20260508022147 | 15 | 2 | 0.0 | 0.0 | 0.00 | 0.94 | 0.94 | 92 | 1034.7 |
| 20260508021643 | 15 | 1 | 0.0 | 0.0 | 0.00 | 0.94 | 0.94 | 92 | 1034.7 |
| 20260508021138 | 15 | 1 | 0.0 | 0.0 | 0.00 | 0.94 | 0.94 | 93 | 1035.0 |
| 20260508020636 | 15 | 12 | 0.0 | 0.0 | 0.00 | 0.94 | 0.94 | 93 | 1034.8 |
| 20260508020134 | 15 | 12 | 0.0 | 0.0 | 0.00 | 0.94 | 0.94 | 92 | 1034.6 |
| 20260508015631 | 15 | 12 | 0.0 | 0.0 | 0.00 | 0.94 | 0.94 | 92 | 1034.8 |
| 20260508015128 | 15 | 12 | 0.0 | 0.0 | 0.00 | 0.94 | 0.94 | 92 | 1034.4 |
| 20260508014624 | 15 | 12 | 0.0 | 0.0 | 0.00 | 0.94 | 0.94 | 93 | 1034.4 |
| 20260508014121 | 15 | 12 | 0.0 | 0.0 | 0.00 | 0.94 | 0.94 | 93 | 1034.4 |
| 20260508013617 | 15 | 12 | 0.0 | 0.0 | 0.00 | 0.94 | 0.94 | 92 | 1034.4 |
| 20260508013114 | 16 | 13 | 0.0 | 0.0 | 0.00 | 0.94 | 0.94 | 92 | 1034.4 |
| 20260508012611 | 16 | 13 | 0.0 | 0.0 | 0.00 | 0.94 | 0.94 | 92 | 1034.5 |
| 20260508012108 | 16 | 13 | 0.0 | 0.0 | 0.00 | 0.94 | 0.94 | 91 | 1034.3 |
| 20260508011607 | 16 | 13 | 0.0 | 0.0 | 0.00 | 0.94 | 0.94 | 90 | 1034.2 |
| 20260508011104 | 16 | 13 | 0.0 | 0.0 | 0.00 | 0.94 | 0.94 | 89 | 1034.5 |
| 20260508010600 | 16 | 13 | 0.0 | 0.0 | 0.00 | 0.94 | 0.94 | 88 | 1034.6 |
| 20260508010058 | 16 | 12 | 0.0 | 0.0 | 0.00 | 0.94 | 0.94 | 89 | 1034.4 |
| 20260508005554 | 16 | 13 | 0.0 | 0.0 | 0.00 | 0.94 | 0.94 | 89 | 1034.5 |
| 20260508005051 | 16 | 13 | 0.0 | 0.0 | 0.00 | 0.94 | 0.94 | 89 | 1034.1 |
| 20260508004547 | 17 | 16 | 0.0 | 0.0 | 0.00 | 0.94 | 0.94 | 89 | 1034.2 |
| 20260508004044 | 17 | 16 | 0.0 | 0.0 | 0.00 | 0.94 | 0.94 | 89 | 1034.0 |
| 20260508003540 | 17 | 16 | 0.0 | 0.0 | 0.00 | 0.94 | 0.94 | 89 | 1034.2 |
| 20260508003038 | 17 | 16 | 0.0 | 0.0 | 0.00 | 0.94 | 0.94 | 89 | 1034.0 |
| 20260508002534 | 17 | 16 | 0.0 | 0.0 | 0.00 | 0.94 | 0.94 | 89 | 1034.2 |
| 20260508002031 | 18 | 16 | 0.0 | 0.0 | 0.00 | 0.94 | 0.94 | 88 | 1034.1 |
| 20260508001527 | 18 | 16 | 0.0 | 0.0 | 0.00 | 0.94 | 0.94 | 88 | 1034.0 |
| 20260508001023 | 18 | 16 | 0.0 | 0.0 | 0.00 | 0.94 | 0.94 | 87 | 1034.1 |
| 20260508000519 | 18 | 17 | 0.0 | 0.0 | 0.00 | 0.94 | 0.94 | 86 | 1034.0 |
| 20260508000017 | 18 | 18 | 0.0 | 0.0 | 0.00 | 0.94 | 0.94 | 85 | 1033.9 |
| 20260507235513 | 19 | 17 | 0.0 | 0.0 | 0.00 | 0.94 | 0.94 | 85 | 1033.8 |
| 20260507235011 | 19 | 17 | 0.0 | 0.0 | 0.00 | 0.94 | 0.94 | 84 | 1033.9 |
| 20260507234507 | 19 | 17 | 0.0 | 0.0 | 0.00 | 0.94 | 0.94 | 84 | 1033.5 |
| 20260507234004 | 19 | 17 | 0.0 | 0.0 | 0.00 | 0.94 | 0.94 | 84 | 1033.4 |
| 20260507233500 | 19 | 18 | 0.0 | 0.0 | 0.00 | 0.94 | 0.94 | 86 | 1033.8 |
| 20260507232959 | 20 | 17 | 0.0 | 0.0 | 0.00 | 0.94 | 0.94 | 86 | 1033.6 |
| 20260507232455 | 20 | 18 | 0.0 | 0.0 | 0.00 | 0.94 | 0.94 | 85 | 1033.4 |
| 20260507231953 | 20 | 34 | 0.0 | 0.0 | 0.00 | 0.94 | 0.94 | 82 | 1033.4 |
| 20260507231448 | 20 | 33 | 0.0 | 0.0 | 0.00 | 0.94 | 0.94 | 82 | 1033.4 |
| 20260507230946 | 20 | 22 | 0.0 | 0.0 | 0.00 | 0.94 | 0.94 | 82 | 1033.4 |
| 20260507230443 | 20 | 47 | 0.0 | 0.0 | 0.00 | 0.94 | 0.94 | 80 | 1033.4 |
| 20260507225938 | 20 | 46 | 0.0 | 0.0 | 0.00 | 0.94 | 0.94 | 82 | 1033.3 |
| 20260507225434 | 20 | 46 | 0.0 | 0.0 | 0.00 | 0.94 | 0.94 | 82 | 1033.3 |
| 20260507224931 | 20 | 11 | 0.0 | 0.0 | 0.00 | 0.94 | 0.94 | 83 | 1033.3 |
| 20260507224427 | 20 | 11 | 0.0 | 0.0 | 0.00 | 0.94 | 0.94 | 83 | 1033.5 |
| 20260507223924 | 20 | 10 | 0.0 | 0.0 | 0.00 | 0.94 | 0.94 | 84 | 1033.3 |
| 20260507223414 | 20 | 10 | 0.0 | 0.0 | 0.00 | 0.94 | 0.94 | 84 | 1033.1 |
| 20260507222911 | 20 | 43 | 0.0 | 0.0 | 0.00 | 0.94 | 0.94 | 79 | 1033.2 |
| 20260507222408 | 20 | 58 | 0.0 | 0.0 | 0.00 | 0.94 | 0.94 | 79 | 1033.0 |
| 20260507221905 | 20 | 47 | 0.0 | 0.0 | 0.00 | 0.94 | 0.94 | 77 | 1033.2 |
| 20260507221402 | 21 | 167 | 0.0 | 0.0 | 0.00 | 0.94 | 0.94 | 77 | 1033.5 |
| 20260507220857 | 21 | 61 | 0.0 | 0.0 | 0.00 | 0.94 | 0.94 | 75 | 1033.3 |
| 20260507220356 | 22 | 146 | 0.0 | 1.6 | 0.00 | 0.94 | 0.94 | 74 | 1033.1 |
| 20260507215852 | 21 | 126 | 0.0 | 0.0 | 0.00 | 0.94 | 0.94 | 72 | 1033.2 |
| 20260507215349 | 21 | 37 | 0.0 | 0.0 | 0.00 | 0.94 | 0.94 | 76 | 1033.2 |
| 20260507214846 | 21 | 112 | 0.0 | 0.0 | 0.00 | 0.94 | 0.94 | 76 | 1033.1 |
| 20260507214343 | 21 | 75 | 0.0 | 0.0 | 0.00 | 0.94 | 0.94 | 73 | 1033.2 |
| 20260507213838 | 21 | 15 | 0.0 | 0.0 | 0.00 | 0.94 | 0.94 | 78 | 1033.0 |
| 20260507213335 | 21 | 178 | 3.2 | 3.2 | 0.00 | 0.94 | 0.94 | 75 | 1033.0 |
| 20260507212832 | 21 | 21 | 0.0 | 0.0 | 0.00 | 0.94 | 0.94 | 78 | 1032.8 |
| 20260507212328 | 21 | 36 | 0.0 | 0.0 | 0.00 | 0.94 | 0.94 | 79 | 1033.1 |
| 20260507211825 | 20 | 116 | 0.0 | 0.0 | 0.00 | 0.94 | 0.94 | 76 | 1032.9 |
| 20260507211322 | 20 | 15 | 1.6 | 3.2 | 0.00 | 0.94 | 0.94 | 78 | 1032.9 |
| 20260507210818 | 21 | 47 | 0.0 | 0.0 | 0.00 | 0.94 | 0.94 | 81 | 1033.0 |
| 20260507210316 | 21 | 159 | 1.6 | 3.2 | 0.00 | 0.94 | 0.94 | 75 | 1032.6 |
| 20260507205811 | 21 | 15 | 0.0 | 0.0 | 0.00 | 0.94 | 0.94 | 80 | 1032.9 |
| 20260507205309 | 20 | 173 | 0.0 | 0.0 | 0.00 | 0.94 | 0.94 | 75 | 1032.7 |
| 20260507204805 | 21 | 41 | 0.0 | 0.0 | 0.00 | 0.94 | 0.94 | 76 | 1033.1 |
| 20260507204303 | 21 | 169 | 1.6 | 1.6 | 0.00 | 0.94 | 0.94 | 75 | 1033.0 |
| 20260507203800 | 21 | 49 | 0.0 | 0.0 | 0.00 | 0.94 | 0.94 | 78 | 1033.0 |
| 20260507203258 | 20 | 205 | 0.0 | 0.0 | 0.00 | 0.94 | 0.94 | 80 | 1033.2 |
| 20260507202754 | 20 | 208 | 0.0 | 0.0 | 0.00 | 0.94 | 0.94 | 80 | 1033.3 |
| 20260507202250 | 20 | 351 | 0.0 | 1.6 | 0.00 | 0.94 | 0.94 | 81 | 1033.4 |
| 20260507201745 | 21 | 59 | 0.0 | 0.0 | 0.00 | 0.94 | 0.94 | 77 | 1033.2 |
| 20260507201242 | 21 | 75 | 0.0 | 0.0 | 0.00 | 0.94 | 0.94 | 76 | 1033.3 |
| 20260507200738 | 21 | 36 | 0.0 | 0.0 | 0.00 | 0.94 | 0.94 | 78 | 1033.4 |
| 20260507200234 | 21 | 58 | 0.0 | 0.0 | 0.00 | 0.94 | 0.94 | 75 | 1033.4 |
| 20260507195730 | 22 | 7 | 0.0 | 0.0 | 0.00 | 0.94 | 0.94 | 76 | 1033.3 |
| 20260507195228 | 21 | 213 | 0.0 | 0.0 | 0.00 | 0.94 | 0.94 | 75 | 1033.3 |
| 20260507194725 | 20 | 14 | 0.0 | 0.0 | 0.00 | 0.94 | 0.94 | 79 | 1033.3 |
| 20260507194221 | 20 | 10 | 0.0 | 0.0 | 0.00 | 0.94 | 0.94 | 77 | 1033.7 |
| 20260507193717 | 20 | 91 | 0.0 | 0.0 | 0.00 | 0.94 | 0.94 | 78 | 1033.4 |
| 20260507193214 | 21 | 47 | 0.0 | 0.0 | 0.00 | 0.94 | 0.94 | 78 | 1033.6 |
| 20260507192710 | 20 | 166 | 0.0 | 0.0 | 0.00 | 0.94 | 0.94 | 76 | 1033.4 |
| 20260507192202 | 21 | 176 | 0.0 | 0.0 | 0.00 | 0.94 | 0.94 | 77 | 1033.6 |
| 20260507191657 | 20 | 39 | 0.0 | 0.0 | 0.00 | 0.94 | 0.94 | 81 | 1033.5 |
| 20260507191155 | 20 | 151 | 1.6 | 1.6 | 0.00 | 0.94 | 0.94 | 80 | 1033.6 |
| 20260507190652 | 20 | 354 | 0.0 | 0.0 | 0.00 | 0.94 | 0.94 | 78 | 1033.7 |
| 20260507190150 | 20 | 238 | 0.0 | 1.6 | 0.00 | 0.94 | 0.94 | 81 | 1033.4 |
| 20260507185648 | 20 | 12 | 0.0 | 0.0 | 0.00 | 0.94 | 0.94 | 87 | 1033.6 |
| 20260507185144 | 18 | 12 | 0.0 | 0.0 | 0.00 | 0.94 | 0.94 | 85 | 1033.7 |
| 20260507184642 | 18 | 353 | 0.0 | 0.0 | 0.00 | 0.94 | 0.94 | 88 | 1033.5 |
| 20260507184140 | 18 | 36 | 0.0 | 0.0 | 0.00 | 0.94 | 0.94 | 85 | 1033.6 |
| 20260507183636 | 18 | 47 | 0.0 | 0.0 | 0.00 | 0.94 | 0.94 | 89 | 1033.7 |
| 20260507183134 | 18 | 39 | 0.0 | 0.0 | 0.00 | 0.94 | 0.94 | 90 | 1033.9 |
| 20260507182630 | 17 | 36 | 0.0 | 0.0 | 0.00 | 0.94 | 0.94 | 91 | 1033.9 |
| 20260507182126 | 17 | 35 | 0.0 | 0.0 | 0.00 | 0.94 | 0.94 | 90 | 1034.2 |
| 20260507181623 | 17 | 135 | 0.0 | 0.0 | 0.00 | 0.94 | 0.94 | 91 | 1034.1 |
| 20260507181119 | 17 | 37 | 0.0 | 0.0 | 0.00 | 0.94 | 0.94 | 93 | 1034.1 |
| 20260507180615 | 17 | 43 | 0.0 | 0.0 | 0.00 | 0.94 | 0.94 | 94 | 1034.0 |
| 20260507180113 | 17 | 31 | 0.0 | 1.6 | 0.00 | 0.94 | 0.94 | 95 | 1034.1 |
| 20260507175608 | 17 | 2 | 0.0 | 0.0 | 0.00 | 0.94 | 0.94 | 95 | 1033.9 |
| 20260507175106 | 17 | 171 | 1.6 | 1.6 | 0.00 | 0.94 | 0.94 | 93 | 1034.0 |
| 20260507174603 | 16 | 79 | 0.0 | 0.0 | 0.00 | 0.94 | 0.94 | 94 | 1034.4 |
| 20260507174101 | 16 | 67 | 0.0 | 0.0 | 0.00 | 0.94 | 0.94 | 95 | 1034.3 |
| 20260507173558 | 16 | 24 | 0.0 | 0.0 | 0.00 | 0.94 | 0.94 | 94 | 1034.2 |
| 20260507173055 | 17 | 201 | 1.6 | 3.2 | 0.00 | 0.94 | 0.94 | 95 | 1034.5 |
| 20260507172550 | 16 | 45 | 0.0 | 0.0 | 0.00 | 0.94 | 0.94 | 97 | 1034.6 |
| 20260507172048 | 16 | 46 | 0.0 | 0.0 | 0.00 | 0.94 | 0.94 | 99 | 1034.6 |
| 20260507171543 | 16 | 92 | 0.0 | 0.0 | 0.00 | 0.94 | 0.94 | 99 | 1034.5 |
| 20260507171040 | 16 | 74 | 0.0 | 0.0 | 0.00 | 0.94 | 0.94 | 99 | 1034.5 |
| 20260507170537 | 15 | 98 | 0.0 | 0.0 | 0.00 | 0.94 | 0.94 | 99 | 1034.6 |
| 20260507170034 | 16 | 80 | 0.0 | 0.0 | 0.00 | 0.94 | 0.94 | 99 | 1034.6 |
| 20260507165530 | 16 | 50 | 0.0 | 0.0 | 0.00 | 0.94 | 0.94 | 99 | 1034.7 |
| 20260507165026 | 15 | 43 | 0.0 | 0.0 | 0.00 | 0.94 | 0.94 | 99 | 1034.7 |
| 20260507164523 | 15 | 128 | 0.0 | 1.6 | 0.00 | 0.94 | 0.94 | 99 | 1035.0 |
| 20260507164020 | 15 | 39 | 0.0 | 0.0 | 0.00 | 0.94 | 0.94 | 99 | 1034.8 |
| 20260507163517 | 15 | 77 | 0.0 | 0.0 | 0.00 | 0.94 | 0.94 | 99 | 1034.6 |
| 20260507163015 | 15 | 136 | 0.0 | 0.0 | 0.00 | 0.94 | 0.94 | 99 | 1034.6 |
| 20260507162509 | 15 | 89 | 0.0 | 0.0 | 0.00 | 0.94 | 0.94 | 99 | 1034.3 |
| 20260507162007 | 15 | 55 | 0.0 | 0.0 | 0.00 | 0.94 | 0.94 | 99 | 1034.4 |
| 20260507161503 | 15 | 186 | 0.0 | 0.0 | 0.00 | 0.94 | 0.94 | 99 | 1034.4 |
| 20260507161000 | 15 | 49 | 0.0 | 0.0 | 0.00 | 0.94 | 0.94 | 99 | 1034.4 |
| 20260507160455 | 15 | 105 | 1.6 | 1.6 | 0.00 | 0.94 | 0.94 | 99 | 1034.3 |
| 20260507155951 | 15 | 66 | 0.0 | 0.0 | 0.00 | 0.94 | 0.94 | 99 | 1034.4 |
| 20260507155448 | 15 | 68 | 0.0 | 1.6 | 0.00 | 0.94 | 0.94 | 99 | 1034.1 |
| 20260507154945 | 15 | 94 | 0.0 | 0.0 | 0.00 | 0.94 | 0.94 | 99 | 1034.2 |
| 20260507154441 | 15 | 147 | 0.0 | 0.0 | 0.00 | 0.94 | 0.94 | 99 | 1034.2 |
| 20260507153939 | 16 | 177 | 1.6 | 3.2 | 0.00 | 0.94 | 0.94 | 99 | 1034.1 |
| 20260507153436 | 16 | 175 | 0.0 | 1.6 | 0.00 | 0.94 | 0.94 | 99 | 1034.1 |
| 20260507152931 | 16 | 43 | 0.0 | 0.0 | 0.00 | 0.94 | 0.94 | 99 | 1034.1 |
| 20260507152428 | 16 | 72 | 0.0 | 0.0 | 0.00 | 0.94 | 0.94 | 99 | 1033.9 |
| 20260507151924 | 16 | 111 | 0.0 | 1.6 | 0.00 | 0.94 | 0.94 | 99 | 1033.9 |
| 20260507151421 | 16 | 50 | 0.0 | 0.0 | 0.00 | 0.94 | 0.94 | 99 | 1033.8 |
| 20260507150917 | 16 | 42 | 0.0 | 0.0 | 0.00 | 0.94 | 0.94 | 99 | 1033.7 |
| 20260507150414 | 16 | 165 | 0.0 | 0.0 | 0.00 | 0.94 | 0.94 | 99 | 1033.6 |
| 20260507145911 | 16 | 182 | 0.0 | 0.0 | 0.00 | 0.94 | 0.94 | 99 | 1033.6 |
| 20260507145407 | 16 | 94 | 0.0 | 0.0 | 0.00 | 0.94 | 0.94 | 99 | 1033.6 |
| 20260507144904 | 16 | 36 | 0.0 | 0.0 | 0.00 | 0.94 | 0.94 | 99 | 1033.7 |
| 20260507144401 | 16 | 63 | 0.0 | 0.0 | 0.00 | 0.94 | 0.94 | 99 | 1033.7 |
| 20260507143857 | 16 | 44 | 0.0 | 0.0 | 0.00 | 0.94 | 0.94 | 99 | 1033.4 |
| 20260507143355 | 16 | 43 | 0.0 | 0.0 | 0.00 | 0.94 | 0.94 | 99 | 1033.4 |
| 20260507142851 | 16 | 47 | 0.0 | 0.0 | 0.00 | 0.94 | 0.94 | 99 | 1033.6 |
| 20260507142347 | 16 | 113 | 0.0 | 0.0 | 0.00 | 0.94 | 0.94 | 99 | 1033.7 |
| 20260507141844 | 16 | 4 | 0.0 | 0.0 | 0.00 | 0.94 | 0.94 | 99 | 1033.5 |
| 20260507141341 | 16 | 46 | 0.0 | 0.0 | 0.00 | 0.94 | 0.94 | 99 | 1033.6 |
| 20260507140837 | 15 | 47 | 0.0 | 0.0 | 0.00 | 0.94 | 0.94 | 99 | 1033.2 |
| 20260507140334 | 16 | 45 | 0.0 | 0.0 | 0.00 | 0.94 | 0.94 | 99 | 1033.3 |
| 20260507135832 | 16 | 51 | 0.0 | 0.0 | 0.00 | 0.94 | 0.94 | 99 | 1033.3 |
| 20260507135329 | 15 | 45 | 0.0 | 0.0 | 0.00 | 0.94 | 0.94 | 99 | 1033.0 |
| 20260507134826 | 15 | 50 | 0.0 | 0.0 | 0.00 | 0.94 | 0.94 | 99 | 1033.1 |
| 20260507134322 | 15 | 47 | 0.0 | 0.0 | 0.00 | 0.94 | 0.94 | 99 | 1033.2 |
| 20260507133818 | 15 | 65 | 0.0 | 0.0 | 0.00 | 0.94 | 0.94 | 99 | 1033.2 |
| 20260507133314 | 15 | 71 | 0.0 | 0.0 | 0.00 | 0.94 | 0.94 | 99 | 1033.3 |
| 20260507132812 | 15 | 60 | 0.0 | 0.0 | 0.00 | 0.94 | 0.94 | 99 | 1033.0 |
| 20260507132308 | 15 | 56 | 0.0 | 0.0 | 0.00 | 0.94 | 0.94 | 99 | 1032.7 |
| 20260507131806 | 15 | 49 | 0.0 | 0.0 | 0.00 | 0.94 | 0.94 | 99 | 1032.6 |
| 20260507131302 | 15 | 50 | 0.0 | 0.0 | 0.00 | 0.94 | 0.94 | 99 | 1033.0 |
| 20260507130759 | 15 | 67 | 0.0 | 0.0 | 0.00 | 0.94 | 0.94 | 99 | 1032.9 |
| 20260507130257 | 15 | 39 | 0.0 | 0.0 | 0.00 | 0.94 | 0.94 | 99 | 1032.8 |
| 20260507125755 | 15 | 36 | 0.0 | 0.0 | 0.00 | 0.94 | 0.94 | 99 | 1032.3 |
| 20260507125253 | 15 | 56 | 0.0 | 0.0 | 0.00 | 0.94 | 0.94 | 99 | 1032.5 |
| 20260507124749 | 15 | 33 | 0.0 | 0.0 | 0.00 | 0.94 | 0.94 | 99 | 1032.4 |
| 20260507124246 | 15 | 45 | 0.0 | 0.0 | 0.00 | 0.94 | 0.94 | 99 | 1032.7 |
| 20260507123744 | 15 | 67 | 0.0 | 0.0 | 0.00 | 0.94 | 0.94 | 99 | 1032.6 |
| 20260507123242 | 15 | 67 | 0.0 | 0.0 | 0.00 | 0.94 | 0.94 | 99 | 1032.4 |
| 20260507122737 | 15 | 69 | 0.0 | 0.0 | 0.00 | 0.94 | 0.94 | 99 | 1032.0 |
| 20260507122233 | 15 | 50 | 0.0 | 0.0 | 0.13 | 0.94 | 0.94 | 99 | 1032.1 |
| 20260507121729 | 15 | 65 | 0.0 | 0.0 | 0.13 | 0.94 | 0.94 | 99 | 1032.0 |
| 20260507121225 | 15 | 40 | 0.0 | 0.0 | 0.00 | 0.91 | 0.91 | 99 | 1031.7 |
| 20260507120721 | 15 | 24 | 0.0 | 0.0 | 0.00 | 0.91 | 0.91 | 99 | 1031.4 |
| 20260507120218 | 15 | 43 | 0.0 | 0.0 | 0.00 | 0.91 | 0.91 | 99 | 1031.5 |
| 20260507115714 | 15 | 43 | 0.0 | 0.0 | 0.00 | 0.91 | 0.91 | 99 | 1031.6 |
| 20260507115210 | 15 | 43 | 0.0 | 0.0 | 0.00 | 0.91 | 0.91 | 99 | 1031.6 |
| 20260507114706 | 15 | 58 | 0.0 | 0.0 | 0.00 | 0.91 | 0.91 | 99 | 1031.6 |
| 20260507114204 | 15 | 20 | 0.0 | 0.0 | 0.00 | 0.91 | 0.91 | 99 | 1031.8 |
| 20260507113701 | 15 | 58 | 0.0 | 0.0 | 0.00 | 0.91 | 0.91 | 99 | 1031.6 |
| 20260507113157 | 15 | 41 | 0.0 | 0.0 | 0.00 | 0.91 | 0.91 | 99 | 1031.6 |
| 20260507112655 | 15 | 43 | 0.0 | 0.0 | 0.00 | 0.91 | 0.91 | 99 | 1031.2 |
| 20260507112152 | 15 | 41 | 0.0 | 0.0 | 0.00 | 0.91 | 0.91 | 99 | 1031.1 |
| 20260507111649 | 15 | 34 | 0.0 | 0.0 | 0.00 | 0.91 | 0.91 | 99 | 1031.2 |
| 20260507111146 | 15 | 53 | 0.0 | 0.0 | 0.00 | 0.91 | 0.91 | 99 | 1031.4 |
| 20260507110642 | 15 | 142 | 1.6 | 3.2 | 0.00 | 0.91 | 0.91 | 99 | 1031.4 |
| 20260507110139 | 15 | 69 | 0.0 | 0.0 | 0.00 | 0.91 | 0.91 | 99 | 1031.6 |
| 20260507105636 | 15 | 224 | 0.0 | 0.0 | 0.00 | 0.91 | 0.91 | 99 | 1031.7 |
| 20260507105131 | 15 | 179 | 0.0 | 0.0 | 0.00 | 0.91 | 0.91 | 99 | 1031.2 |
| 20260507104629 | 16 | 169 | 1.6 | 3.2 | 0.00 | 0.91 | 0.91 | 99 | 1031.0 |
| 20260507104125 | 16 | 122 | 0.0 | 0.0 | 0.00 | 0.91 | 0.91 | 99 | 1030.7 |
| 20260507103621 | 16 | 56 | 0.0 | 0.0 | 0.00 | 0.91 | 0.91 | 99 | 1030.5 |
| 20260507103119 | 16 | 155 | 0.0 | 0.0 | 0.00 | 0.91 | 0.91 | 99 | 1030.4 |
| 20260507102615 | 16 | 52 | 0.0 | 0.0 | 0.00 | 0.91 | 0.91 | 99 | 1030.6 |
| 20260507102111 | 17 | 128 | 0.0 | 0.0 | 0.00 | 0.91 | 0.91 | 99 | 1030.5 |
| 20260507101607 | 17 | 152 | 1.6 | 3.2 | 0.00 | 0.91 | 0.91 | 99 | 1030.5 |
| 20260507101103 | 17 | 168 | 0.0 | 0.0 | 0.00 | 0.91 | 0.91 | 99 | 1030.0 |
| 20260507100600 | 17 | 32 | 0.0 | 0.0 | 0.00 | 0.91 | 0.91 | 99 | 1029.5 |
| 20260507100058 | 17 | 29 | 0.0 | 0.0 | 0.00 | 0.91 | 0.91 | 99 | 1029.8 |
| 20260507095555 | 17 | 29 | 0.0 | 0.0 | 0.00 | 0.91 | 0.91 | 99 | 1030.0 |
| 20260507095047 | 17 | 30 | 0.0 | 0.0 | 0.00 | 0.91 | 0.91 | 99 | 1030.2 |
| 20260507094543 | 17 | 30 | 0.0 | 0.0 | 0.00 | 0.91 | 0.91 | 99 | 1030.0 |
| 20260507094040 | 17 | 29 | 0.0 | 0.0 | 0.00 | 0.91 | 0.91 | 99 | 1029.9 |
| 20260507093537 | 17 | 29 | 0.0 | 0.0 | 0.00 | 0.91 | 0.91 | 99 | 1029.8 |
| 20260507093036 | 17 | 28 | 0.0 | 0.0 | 0.00 | 0.91 | 0.91 | 99 | 1029.9 |
| 20260507092532 | 17 | 11 | 0.0 | 0.0 | 0.00 | 0.91 | 0.91 | 99 | 1029.9 |
| 20260507092029 | 17 | 26 | 0.0 | 0.0 | 0.00 | 0.91 | 0.91 | 99 | 1030.0 |
| 20260507091526 | 17 | 31 | 0.0 | 0.0 | 0.18 | 0.91 | 0.91 | 99 | 1029.7 |
| 20260507091022 | 17 | 359 | 0.0 | 0.0 | 0.36 | 0.91 | 0.91 | 99 | 1029.8 |
| 20260507090518 | 17 | 4 | 0.0 | 0.0 | 0.48 | 0.89 | 0.89 | 99 | 1030.0 |
| 20260507090015 | 18 | 2 | 0.0 | 0.0 | 0.71 | 0.86 | 0.86 | 99 | 1029.7 |
| 20260507085512 | 17 | 1 | 0.0 | 0.0 | 1.80 | 0.81 | 0.81 | 99 | 1029.9 |
| 20260507085009 | 18 | 35 | 0.0 | 0.0 | 1.55 | 0.74 | 0.74 | 99 | 1029.8 |
| 20260507084505 | 18 | 43 | 0.0 | 0.0 | 0.71 | 0.53 | 0.53 | 99 | 1029.9 |
| 20260507084002 | 18 | 44 | 0.0 | 0.0 | 0.61 | 0.51 | 0.51 | 99 | 1029.9 |
| 20260507083458 | 18 | 37 | 0.0 | 0.0 | 0.00 | 0.41 | 0.41 | 99 | 1029.8 |
| 20260507082955 | 18 | 9 | 0.0 | 0.0 | 0.00 | 0.41 | 0.41 | 99 | 1029.6 |
| 20260507082451 | 18 | 6 | 0.0 | 0.0 | 0.00 | 0.41 | 0.41 | 99 | 1029.2 |
| 20260507081948 | 18 | 1 | 0.0 | 0.0 | 0.00 | 0.41 | 0.41 | 99 | 1029.5 |
| 20260507081444 | 18 | 48 | 0.0 | 0.0 | 0.00 | 0.41 | 0.41 | 99 | 1029.5 |
| 20260507080941 | 18 | 48 | 0.0 | 0.0 | 0.00 | 0.41 | 0.41 | 99 | 1029.7 |
| 20260507080437 | 18 | 48 | 0.0 | 0.0 | 0.00 | 0.41 | 0.41 | 99 | 1029.6 |
| 20260507075932 | 18 | 46 | 0.0 | 0.0 | 0.00 | 0.41 | 0.41 | 99 | 1029.4 |
| 20260507075429 | 18 | 45 | 0.0 | 0.0 | 0.18 | 0.41 | 0.41 | 99 | 1029.6 |
| 20260507074926 | 18 | 37 | 0.0 | 0.0 | 0.18 | 0.41 | 0.41 | 99 | 1029.5 |
| 20260507074422 | 18 | 37 | 0.0 | 0.0 | 0.00 | 0.38 | 0.38 | 99 | 1029.5 |
| 20260507073920 | 18 | 38 | 0.0 | 0.0 | 0.30 | 0.38 | 0.38 | 99 | 1029.7 |
| 20260507073416 | 18 | 38 | 0.0 | 0.0 | 0.71 | 0.38 | 0.38 | 99 | 1029.9 |
| 20260507072913 | 18 | 38 | 0.0 | 0.0 | 0.61 | 0.33 | 0.33 | 99 | 1029.7 |
| 20260507072410 | 18 | 47 | 0.0 | 0.0 | 0.18 | 0.25 | 0.25 | 99 | 1029.7 |
| 20260507071903 | 18 | 48 | 0.0 | 0.0 | 0.18 | 0.23 | 0.23 | 99 | 1029.8 |
| 20260507071359 | 18 | 53 | 0.0 | 0.0 | 0.30 | 0.23 | 0.23 | 99 | 1029.3 |
| 20260507070855 | 18 | 147 | 0.0 | 1.6 | 0.43 | 0.20 | 0.20 | 99 | 1029.4 |
| 20260507070353 | 18 | 351 | 1.6 | 1.6 | 0.48 | 0.18 | 0.18 | 99 | 1028.5 |
| 20260507065850 | 18 | 22 | 0.0 | 0.0 | 0.18 | 0.13 | 0.13 | 99 | 1028.3 |
| 20260507065346 | 18 | 21 | 1.6 | 1.6 | 0.00 | 0.10 | 0.10 | 99 | 1029.0 |
| 20260507064844 | 18 | 12 | 0.0 | 0.0 | 0.00 | 0.10 | 0.10 | 99 | 1030.1 |
| 20260507064342 | 18 | 48 | 0.0 | 0.0 | 0.00 | 0.10 | 0.10 | 99 | 1030.7 |
| 20260507063840 | 18 | 48 | 0.0 | 0.0 | 0.00 | 0.10 | 0.10 | 99 | 1030.6 |
| 20260507063336 | 18 | 48 | 0.0 | 0.0 | 0.00 | 0.10 | 0.10 | 99 | 1030.3 |
| 20260507062833 | 18 | 94 | 0.0 | 0.0 | 0.00 | 0.10 | 0.10 | 99 | 1030.1 |
| 20260507062330 | 18 | 43 | 0.0 | 0.0 | 0.00 | 0.10 | 0.10 | 99 | 1030.4 |
| 20260507061828 | 18 | 50 | 0.0 | 0.0 | 0.00 | 0.10 | 0.10 | 99 | 1030.9 |
| 20260507061325 | 18 | 49 | 0.0 | 0.0 | 0.00 | 0.10 | 0.10 | 99 | 1030.5 |
| 20260507060824 | 18 | 51 | 0.0 | 0.0 | 0.00 | 0.10 | 0.10 | 99 | 1030.8 |
| 20260507060320 | 18 | 35 | 0.0 | 0.0 | 0.00 | 0.10 | 0.10 | 99 | 1030.8 |
| 20260507055817 | 18 | 34 | 0.0 | 0.0 | 0.00 | 0.10 | 0.10 | 99 | 1030.7 |
| 20260507055312 | 18 | 35 | 0.0 | 0.0 | 0.00 | 0.10 | 0.10 | 99 | 1030.6 |
| 20260507054809 | 18 | 11 | 0.0 | 0.0 | 0.00 | 0.10 | 0.10 | 99 | 1030.9 |
| 20260507054305 | 18 | 37 | 0.0 | 0.0 | 0.13 | 0.10 | 0.10 | 99 | 1031.1 |
| 20260507053803 | 18 | 42 | 0.0 | 0.0 | 0.13 | 0.10 | 0.10 | 99 | 1031.2 |
| 20260507053300 | 18 | 26 | 0.0 | 0.0 | 0.00 | 0.08 | 0.08 | 99 | 1031.5 |
| 20260507052759 | 18 | 11 | 0.0 | 0.0 | 0.00 | 0.08 | 0.08 | 99 | 1031.3 |
| 20260507052255 | 18 | 11 | 0.0 | 0.0 | 0.18 | 0.08 | 0.08 | 99 | 1031.3 |
| 20260507051753 | 18 | 10 | 0.0 | 0.0 | 0.30 | 0.08 | 0.08 | 99 | 1031.1 |
| 20260507051250 | 18 | 11 | 0.0 | 0.0 | 0.30 | 0.05 | 0.05 | 99 | 1031.3 |
| 20260507050747 | 19 | 359 | 0.0 | 0.0 | 0.18 | 0.03 | 0.03 | 99 | 1030.9 |
| 20260507050243 | 19 | 352 | 0.0 | 0.0 | 0.00 | 0.00 | 0.00 | 99 | 1031.2 |
| 20260507045740 | 19 | 34 | 0.0 | 0.0 | 0.00 | 1.52 | 1.52 | 99 | 1031.0 |
| 20260507045236 | 19 | 33 | 0.0 | 0.0 | 0.00 | 1.52 | 1.52 | 99 | 1031.0 |
| 20260507044734 | 19 | 46 | 0.0 | 0.0 | 0.00 | 1.52 | 1.52 | 99 | 1030.9 |
| 20260507044230 | 19 | 58 | 0.0 | 0.0 | 0.00 | 1.52 | 1.52 | 99 | 1030.9 |
| 20260507043726 | 19 | 61 | 0.0 | 0.0 | 0.00 | 1.52 | 1.52 | 99 | 1030.9 |
| 20260507043223 | 19 | 39 | 0.0 | 0.0 | 0.00 | 1.52 | 1.52 | 99 | 1031.0 |
| 20260507042720 | 19 | 175 | 0.0 | 0.0 | 0.13 | 1.52 | 1.52 | 99 | 1031.1 |
| 20260507042214 | 19 | 178 | 0.0 | 0.0 | 0.13 | 1.52 | 1.52 | 99 | 1031.2 |
| 20260507041712 | 19 | 91 | 0.0 | 0.0 | 0.36 | 1.50 | 1.50 | 99 | 1031.7 |
| 20260507041209 | 19 | 26 | 0.0 | 0.0 | 0.66 | 1.50 | 1.50 | 99 | 1031.6 |
| 20260507040706 | 19 | 167 | 0.0 | 0.0 | 0.61 | 1.47 | 1.47 | 99 | 1031.8 |
| 20260507040202 | 19 | 346 | 0.0 | 0.0 | 0.30 | 1.40 | 1.40 | 99 | 1030.6 |